Terminal Aerodrome Forecast
Issued by NWS

Home | Current Version | Previous Version | Text Only | Print | Product List | Glossary On
Versions: 1 2 3 4 5 6 7 8 9 10 11 12 13 14
000
FTUS45 KRIW 201100
TAFCPR
TAF
KCPR 201120Z 2012/2112 24009KT P6SM SCT250
     FM201600 26010KT P6SM BKN250
     FM202100 36011KT P6SM VCSH SCT080 BKN150
     FM210000 02012KT P6SM VCSH BKN080
     FM210300 05009KT P6SM FEW090 SCT250
     FM210900 08009KT P6SM SCT250=

USA.gov is the U.S. government's official web portal to all federal, state and local government web resources and services.